Location: Catenoy
(49.3682°N, 2.5105°E)
Time: 22:20:39
(UTC+00:00)

Daily predictions for brighter satellites

Satellite Brightness Start Highest point End
(mag) Time Altitude Azimuth Time Altitude Azimuth Time Altitude Azimuth
Cosmos 2227 Rocket 2.5 16:18:49 10° SW 16:24:28 74° WNW 16:30:09 10° NNE
Cosmos 44 3.6 16:20:50 10° NW 16:26:17 86° SW 16:31:28 10° SE
Cosmos 1140 Rocket 4.1 16:22:12 10° N 16:26:58 35° NE 16:31:40 10° ESE
SAR-Lupe-2 3.7 16:26:41 10° SSE 16:30:10 54° ENE 16:33:41 10° N
Spot 4 Rocket 4.5 16:27:40 10° S 16:32:46 68° WSW 16:37:55 10° NNW
Cosmos 1666 3.0 16:30:30 10° N 16:33:50 38° ENE 16:37:09 10° SE
ARGOS 3.6 16:28:35 10° S 16:33:59 69° WSW 16:39:24 10° NNW
Cosmos 1603 4.2 16:31:33 10° NNW 16:36:51 37° NE 16:42:04 10° ESE
PSLV R/B 4.0 16:34:32 10° S 16:38:46 68° WSW 16:43:05 10° NNW
DMSP B5D2-2 4.4 16:33:49 10° NNE 16:38:49 45° E 16:43:48 10° S
Cosmos 1076 Rocket 3.5 16:36:46 10° N 16:41:09 73° E 16:45:29 10° SSE
CZ-2C R/B 4.3 16:37:58 10° N 16:42:34 31° WNW 16:47:06 10° WSW
Meteor 1-31 Rocket 3.1 16:40:00 10° SE 16:43:25 37° ENE 16:46:53 10° N
Cosmos 1544 3.1 16:42:46 10° NNW 16:46:01 69° W 16:49:14 10° S
USA 306 2.8 16:44:06 10° WNW 16:46:12 36° SW 16:48:11 10° SE
SJ-7 4.3 16:44:24 10° SSE 16:48:22 80° ENE 16:52:25 10° NNW
Cosmos 1238 Rocket 4.1 16:46:33 10° SW 16:49:47 33° WNW 16:52:42 10° N
SL-16 R/B 3.3 16:44:27 10° NW 16:49:56 50° WSW 16:55:23 10° S
ATLAS CENTAUR R/B 2.4 16:46:07 10° NW 16:49:58 83° NE 16:57:27 10° ESE
Cosmos 1602 3.7 16:49:05 10° N 16:52:45 53° ENE 16:56:24 10° SSE
SL-8 R/B 4.3 16:49:34 10° W 16:54:15 57° SSW 16:58:56 10° ESE
RESURS DK-1 4.0 16:52:09 10° N 16:54:46 16° NE 16:56:12 14° ENE
USA 305 2.7 16:51:03 10° WNW 16:54:53 82° SSW 16:58:43 10° ESE
Cosmos 1607 4.2 16:50:14 10° SW 16:56:35 77° NW 17:03:05 10° NE
CZ-4B R/B 3.9 16:54:45 10° SE 16:59:26 39° ENE 17:04:00 10° N
Cosmos 1943 3.1 16:55:22 10° NNW 17:01:01 70° ENE 17:06:38 10° SE
Cosmos 1782 4.1 16:58:47 10° SE 17:01:34 19° E 17:03:03 16° ENE
Cosmos 1812 Rocket 4.2 16:58:00 10° SSE 17:01:52 32° E 17:05:46 10° NNE
Helios 1A 4.0 16:58:42 10° NE 17:02:09 26° E 17:05:39 10° SSE
ATLAS 2AS CENTAUR R/B 3.1 16:56:12 10° NW 17:02:48 41° NNE 17:09:06 10° E
Cosmos 1500 3.5 17:00:58 10° NNW 17:04:28 63° W 17:07:57 10° S
SMAP 3.0 17:01:22 10° SSE 17:06:01 83° ENE 17:10:42 10° NNW
Helios 1B rocket 3.4 17:02:45 10° S 17:06:34 49° W 17:10:25 10° NNW
NOAA 6 4.5 17:02:36 10° SE 17:07:17 37° ENE 17:11:58 10° N
CZ-4B R/B 3.5 17:05:49 10° SSE 17:09:24 75° ENE 17:13:04 10° N
Cosmos 407 Rocket 3.5 17:07:22 10° NNW 17:12:28 57° ENE 17:17:30 10° SE
Cosmos 2297 Rocket 4.0 17:08:18 10° W 17:12:55 25° NW 17:17:34 10° NNE
SL-16 R/B 4.5 17:08:01 10° N 17:12:56 25° NW 17:17:50 10° WSW
Radarsat Rocket 4.2 17:08:21 10° SE 17:13:53 47° ENE 17:19:45 10° N
SOZ 4.0 17:12:18 10° WSW 17:14:28 84° NNW 17:16:20 22° ENE
Cosmos 405 Rocket 4.2 17:12:17 10° SW 17:15:50 36° WNW 17:19:28 10° N
ISS -1.3 17:15:45 10° W 17:18:30 24° SW 17:21:15 10° SSE
Cosmos 2219 4.0 17:13:47 10° SW 17:19:11 48° NW 17:24:40 10° NNE
Cosmos 2251 Rocket 3.5 17:14:55 10° NNW 17:20:16 70° ENE 17:25:37 10° SSE
Cosmos 220 Rocket 4.5 17:20:00 10° N 17:24:01 36° ENE 17:27:53 10° SE
Lacrosse 5 2.8 17:25:27 10° S 17:29:49 30° SE 17:31:43 23° E
Cosmos-2242 2.9 17:26:59 10° S 17:31:20 80° E 17:35:40 10° NNE
COSMO-SKYMED 1 3.1 17:29:30 22° NE 17:31:39 36° E 17:35:40 10° SSE
Lacrosse 4 Rocket 1.8 17:28:26 10° NW 17:32:45 66° WSW 17:36:57 10° SSE
Cosmos 1833 Rocket 4.1 17:29:39 10° N 17:33:31 18° NE 17:33:48 18° NE
Cosmos 2082 4.3 17:28:43 10° SW 17:34:13 56° NW 17:39:45 10° NNE
Cosmos 1553 Rocket 4.4 17:32:52 10° N 17:38:42 37° ENE 17:44:23 10° SE
APEX 2.2 17:36:44 10° SSW 17:39:41 70° ESE 17:39:57 63° ENE
Meteor 2-2 Rocket 4.2 17:35:21 10° S 17:41:03 68° E 17:46:54 10° NNE
USA 234 3.5 17:37:35 23° ENE 17:41:39 56° SE 17:48:03 10° SW
Cosmos 2221 3.5 17:38:19 10° SSE 17:41:02 26° ESE 17:41:02 26° ESE
Meteor 1-25 Rocket 4.2 17:36:16 10° NNW 17:41:58 90° ENE 17:47:34 10° S
Cosmos 2344 3.5 17:34:46 10° SSW 17:42:12 62° SE 17:47:04 22° NE
Cosmos 1812 2.7 17:40:46 10° SSW 17:44:26 74° W 17:47:41 13° N
Cosmos 1190 Rocket 4.0 17:39:18 10° NNW 17:44:35 62° ENE 17:49:49 10° SE
Cosmos 1818 3.6 17:40:46 10° SSW 17:46:06 61° ESE 17:48:46 29° NE
Cosmos 2026 Rocket 4.0 17:42:02 10° S 17:48:10 61° E 17:54:26 10° NNE
USA 276 2.0 17:46:00 10° WSW 17:48:03 57° SW 17:48:03 57° SW
Cosmos 1371 Rocket 4.5 17:46:49 10° S 17:51:37 38° ESE 17:52:32 35° E
Cosmos 2195 Rocket 4.4 17:48:58 10° S 17:55:16 79° E 18:01:34 10° NNE
CZ-4B R/B 4.5 18:01:43 23° NNE 18:01:43 23° NNE 18:04:37 10° N
Cosmos 1844 Rocket 2.8 17:54:53 10° S 18:00:16 53° ESE 18:02:02 38° ENE
Cosmos 2263 Rocket 3.2 17:55:08 10° WSW 18:00:24 42° NW 18:05:03 13° NNE
Meteor 1-26 Rocket 4.3 17:56:05 10° SSE 18:01:26 51° E 18:04:18 27° NNE
Cosmos 1766 Rocket 3.5 17:59:16 10° N 18:03:35 59° ENE 18:07:51 10° SSE
YAOGAN 1 3.4 18:07:02 34° NNE 18:07:02 34° NNE 18:09:43 10° N
Cosmos 1092 Rocket 3.8 17:59:32 10° S 18:05:40 82° E 18:11:50 10° N
Cosmos 1933 3.1 18:02:57 10° S 18:06:57 84° E 18:07:55 50° NNE
Cosmos 1420 Rocket 4.1 18:02:23 10° S 18:07:29 53° ESE 18:08:28 46° ENE
Cosmos 2227 4.3 18:03:09 10° SW 18:08:54 75° WNW 18:12:31 24° NNE
Cosmos 2227 Rocket 4.3 18:05:34 10° W 18:09:32 19° NW 18:13:31 10° N
YAOGAN 3 4.4 18:06:16 10° SSE 18:10:33 68° ENE 18:14:52 10° N
Cosmos 2082 Rocket 4.2 18:07:44 10° N 18:09:22 13° NNE 18:09:22 13° NNE
ADEOS 3.4 18:05:33 10° SSE 18:10:46 83° ENE 18:16:02 10° NNW
Meteor 1-5 Rocket 4.1 18:06:59 10° N 18:12:42 82° ENE 18:18:34 10° SSE
Cosmos 1624 Rocket 4.0 18:10:12 10° S 18:15:17 56° ESE 18:15:39 55° E
BREEZE-M DEB (TANK) 3.5 18:14:11 10° W 18:15:04 24° W 18:15:04 24° W
CZ-4B R/B 4.0 18:20:41 35° N 18:20:41 35° N 18:23:10 10° N
SKYMED 2 3.6 18:18:07 36° N 18:19:51 78° WNW 18:24:12 10° SSW
SL-08 R/B 3.1 18:25:45 70° NNE 18:26:16 85° ESE 18:30:54 10° SSW
Cosmos 192 4.2 18:22:50 10° SSW 18:27:44 86° WNW 18:28:35 62° NNE
RESURS DK-1 3.1 18:29:02 10° NNW 18:31:56 44° NNW 18:31:56 44° NNW
Cosmos 1782 4.0 18:33:30 10° SW 18:37:10 39° WNW 18:38:16 32° NW
Helios 1A 4.5 18:35:01 19° NNW 18:37:26 34° WNW 18:41:12 10° SW
Cosmos 676 Rocket 4.0 18:33:09 10° NNW 18:38:29 81° WSW 18:40:04 46° S
ATLAS 2AS CENTAUR R/B 2.8 18:47:18 10° NW 18:54:10 68° SW 18:56:38 40° SSE
CZ-4B DEB 4.3 18:53:03 29° S 18:56:01 73° WSW 19:01:35 10° NNW
Cosmos 1241 Rocket 4.3 18:54:19 10° SW 19:00:35 86° S 19:00:35 86° S
ADEOS Rocket 4.5 19:09:44 22° N 19:09:44 22° N 19:11:45 10° N
COSMO-SKYMED 1 4.4 19:06:43 25° NW 19:07:43 28° WNW 19:11:24 10° WSW
Cosmos 2056 Rocket 4.1 19:03:56 10° SW 19:09:06 57° WNW 19:09:06 57° WNW
Cosmos 1844 4.1 19:06:36 10° SW 19:12:17 58° WNW 19:12:19 58° NW
Lacrosse 5 2.8 19:07:25 10° WSW 19:10:56 44° WSW 19:10:56 44° WSW
COSMOS 2455 3.9 19:06:54 10° SSW 19:10:14 35° SSW 19:10:14 35° SSW
Timation 2 Rocket 4.3 19:09:27 10° SW 19:15:20 57° NW 19:15:41 56° NW
Cosmos 1833 Rocket 4.1 19:12:51 10° NNW 19:15:30 28° NNW 19:15:30 28° NNW
USA 234 3.4 19:24:56 66° NNW 19:24:56 66° NNW 19:31:15 10° WSW
Cosmos 1844 Rocket 4.2 19:39:26 10° WSW 19:43:44 32° WNW 19:43:44 32° WNW
Cosmos 2344 4.3 19:50:05 10° W 19:56:58 42° NNW 19:57:06 42° NNW
